Voltar ao catálogo

CZ-6A DEB

AtivoSSO
NORAD 55533·DEBRIS·🇨🇳 China

Lançado Nov 11, 2022 de Taiyuan Satellite Launch Center

Loading…

Próximas Passagens (próximas 24 horas)

TLE

AtualizadoSource: Space-Track

Época: Sep 13, 2026, 17:05 UTC

1 55533U 22151YF  26256.71181177  .00000089  00000-0  74125-4 0  9996
2 55533  98.8442 255.5342 0042648  83.8883 276.7144 14.10058465192171

Acompanhe CZ-6A DEB em tempo real com AllMySat

Download on the App Store